Location: Hackbridge
(51.3833°N, 0.1500°W)
Time: 07:56:43
(UTC+00:00)

BREEZE M DEB (TANK) - Pass Details

Date: 13 October 2019
Orbit: 281 x 14540 km, 49.5° (Epoch: 16 November)

Event Time Altitude Azimuth Distance (km) Brightness Sun altitude
Rises 19:12:41 0° 275° (W) 2,047 6.9 -19.5°
Reaches altitude 10° 19:14:09 10° 263° (W) 1,396 5.4 -19.7°
Maximum altitude 19:16:37 33° 194° (SSW) 958 3.5 -20.1°
Enters shadow 19:17:59 27° 158° (SSE) 1,343 3.9 -20.3°
